Epoch 1999 July 1.0 TT = JDT 2451360.5
T 1999 June 20.83452 TT MPC
q 1.9367936 (2000.0) P Q
n 0.13999410 Peri. 296.91724 +0.74379907 -0.64231956
a 3.6733549 Node 103.65125 +0.66065088 +0.66447289
e 0.4727453 Incl. 10.96893 +0.10150551 +0.38197036
P 7.04